User: anonymous   Login
Location: NJAA Observatory
(40.6819°N, 74.8979°W)
Time: 10:15:47
(UTC-04:00)
Language:

Iridium 4 - Orbit

View from above orbital plane
View from above orbital plane
View from above satellite
View from above satellite

Ground track
Ground track

The orbit data is extracted from the following two-line orbital elements,

1 24796U 97020E   14303.27241308  .00000543  00000-0  18471-3 0   654
2 24796 086.3982 000.0713 0002233 105.7262 321.7081 14.34739044915499
Epoch (UTC): 30 October 2014 06:32:16
Eccentricity: 0.0002233
inclination: 86.3982°
perigee height: 774 km
apogee height: 777 km
right ascension of ascending node: 0.0713°
argument of perigee: 105.7262°
revolutions per day: 14.34739044
mean anomaly at epoch: 321.7081°
orbit number at epoch: 91549

The dashed part of the orbit path shows where the satellite is in the earth's shadow,  

DLR